This is the latest recevied weather packets stored in our database for station/object KD4EED. If no packets are shown the sender has not sent any weather packets the latest 10 day(s).
| Time | Temp. | Humidity | Pressure | Rain* | Wind** | Luminosity | Snow |
|---|---|---|---|---|---|---|---|
| 1777748855 | 20.56° C | 69% | 1011.7 hPa | - | - | 502 W/m² | - |
| 1777748553 | 20° C | 70% | 1011.7 hPa | - | - | 376 W/m² | - |
| 1777748253 | 20° C | 70% | 1012 hPa | - | - | 366 W/m² | - |
| 1777747949 | 20° C | 70% | 1012.1 hPa | - | - | 428 W/m² | - |
| 1777747646 | 20° C | 70% | 1012.1 hPa | - | - | 309 W/m² | - |
| 1777747341 | 20° C | 71% | 1012.1 hPa | - | - | 371 W/m² | - |
| 1777747039 | 20° C | 69% | 1012.1 hPa | - | - | 250 W/m² | - |
| 1777746734 | 20° C | 71% | 1012.2 hPa | - | - | 268 W/m² | - |
| 1777746430 | 19.44° C | 73% | 1012.1 hPa | - | - | 267 W/m² | - |
| 1777746125 | 19.44° C | 74% | 1012 hPa | - | - | 284 W/m² | - |
| 1777745823 | 18.89° C | 75% | 1012.1 hPa | - | - | 210 W/m² | - |
| 1777745522 | 18.89° C | 75% | 1011.9 hPa | - | - | 215 W/m² | - |
| 1777745218 | 18.89° C | 75% | 1012.1 hPa | - | - | 200 W/m² | - |
| 1777744916 | 18.89° C | 75% | 1012.3 hPa | - | - | 194 W/m² | - |
| 1777744615 | 18.33° C | 77% | 1012.2 hPa | - | - | 196 W/m² | - |
| 1777744311 | 18.33° C | 77% | 1012.2 hPa | - | - | 179 W/m² | - |
| 1777744008 | 17.78° C | 78% | 1012.2 hPa | - | - | 162 W/m² | - |
| 1777743704 | 17.78° C | 79% | 1012.4 hPa | - | - | 138 W/m² | - |
| 1777743402 | 17.78° C | 79% | 1012.4 hPa | - | - | 146 W/m² | - |
| 1777743100 | 17.22° C | 79% | 1012.4 hPa | - | - | 155 W/m² | - |
| 1777742797 | 17.22° C | 79% | 1012.6 hPa | - | - | 137 W/m² | - |
| 1777742493 | 17.22° C | 79% | 1012.6 hPa | - | - | 132 W/m² | - |
| 1777742189 | 17.22° C | 80% | 1012.6 hPa | - | - | 118 W/m² | - |
| 1777741886 | 17.22° C | 80% | 1012.6 hPa | - | - | 120 W/m² | - |
| 1777741583 | 16.67° C | 81% | 1012.8 hPa | - | - | 118 W/m² | - |
* Rain since midnight (hover to see other rain measurements)
** Current wind speed in m/s (hover to see current wind gust speed)